Temperature
3 3 3 3 3 4 4 4 4 4 5 5 4 4 3 4 4 4 4 5 5 5 6 6 6 7 7 7 7 7 7 7 7 7 7 7 7 7 7 6 6 6 6 5
2 3 3 3 3 3 4 4 4 4 4 4 4 4 3 3 3 3 4 4 4 5 5 5 6 6 6 6 6 6 7 7 7 6 6 6 6 6 6 6 5 5 5 5
1 2 3 2 2 3 3 3 3 4 4 3 3 3 2 3 3 3 3 4 4 4 5 5 5 5 5 5 6 6 6 6 6 6 6 5 5 5 5 5 5 4 4 4
1 1 1 3 2 2 2 2 2 3 3 3 3 3 3 3 3 3 3 3 4 4 4 4 5 5 5 5 5 5 5 5 5 5 5 5 4 4 4 4 4 4 4 4
-0 0 1 2 2 1 1 2 1 2 2 2 2 2 2 2 3 3 3 3 3 4 4 4 4 4 4 4 4 4 4 4 4 4 4 4 4 4 3 3 3 3 3 3
-1 0 1 2 1 1 2 2 1 1 1 1 1 1 1 2 2 2 3 3 3 3 3 3 3 3 3 3 3 3 3 4 3 3 3 3 3 3 3 3 3 2 2 2
-1 -1 0 0 0 2 2 1 1 1 1 0 1 1 1 1 2 2 2 2 3 2 3 3 3 3 3 3 3 3 3 3 3 2 2 2 2 2 2 2 2 2 2 1
-2 -1 -0 -0 -0 0 0 1 1 1 1 1 1 1 1 1 1 1 1 2 2 2 2 2 2 2 2 2 2 2 2 2 2 2 2 2 2 1 1 1 1 1 1 1
-2 -1 -1 -1 -0 0 1 0 0 0 0 0 -0 -1 -0 -0 -0 0 1 1 1 1 1 1 1 1 1 1 1 1 1 1 1 1 1 1 1 1 1 0 0 0 -0 -0
-2 -2 -2 -1 -1 -0 -0 -0 -0 -0 -0 -0 -1 -1 -1 -1 -1 -1 -0 -0 0 0 0 1 0 0 0 0 0 0 0 0 0 0 0 0 -0 -0 -0 -0 -1 -1 -1 -1
-3 -2 -2 -1 -1 -1 -1 -1 -1 -0 -1 -1 -1 -1 -1 -2 -1 -1 -1 -1 -1 -1 -0 -0 -0 -0 -0 -0 -0 -1 -0 -1 -1 -1 -1 -1 -1 -1 -1 -1 -1 -2 -2 -2
-3 -2 -2 -2 -1 -1 -1 -1 -1 -1 -1 -1 -1 -2 -2 -2 -2 -2 -2 -2 -2 -1 -1 -1 -1 -1 -1 -1 -1 -1 -1 -1 -1 -1 -1 -1 -1 -1 -2 -2 -2 -2 -3 -3
-2 -2 -2 -2 -2 -2 -2 -2 -2 -2 -2 -2 -2 -2 -2 -2 -2 -2 -2 -2 -2 -2 -2 -2 -2 -2 -2 -2 -2 -2 -2 -2 -2 -2 -2 -2 -2 -2 -2 -2 -3 -3 -3 -3
-3 -3 -3 -3 -3 -2 -2 -2 -2 -2 -2 -2 -3 -3 -3 -3 -3 -3 -3 -3 -3 -3 -3 -3 -3 -3 -3 -3 -3 -3 -3 -3 -3 -3 -3 -3 -3 -3 -3 -3 -3 -3 -3 -4
-3 -3 -3 -3 -3 -3 -3 -3 -3 -3 -3 -3 -3 -3 -3 -3 -3 -3 -3 -3 -3 -3 -3 -3 -3 -3 -3 -3 -3 -3 -3 -3 -3 -3 -3 -4 -4 -4 -4 -4 -4 -4 -4 -4
-4 -4 -4 -4 -4 -4 -3 -3 -3 -4 -4 -4 -4 -4 -4 -4 -4 -4 -4 -4 -4 -4 -4 -4 -4 -4 -4 -4 -4 -4 -4 -4 -4 -4 -4 -4 -4 -5 -5 -5 -5 -5 -5 -4
-5 -5 -5 -5 -4 -4 -4 -4 -4 -4 -4 -4 -4 -4 -4 -4 -4 -4 -4 -5 -5 -5 -5 -5 -4 -4 -4 -5 -5 -4 -5 -5 -5 -5 -5 -5 -5 -5 -5 -5 -5 -5 -5 -5
-5 -5 -5 -5 -5 -5 -5 -5 -5 -5 -5 -5 -5 -5 -5 -5 -5 -5 -5 -5 -5 -5 -5 -5 -5 -5 -5 -5 -5 -5 -5 -5 -5 -5 -5 -5 -5 -6 -6 -6 -6 -5 -5 -5
-5 -5 -5 -5 -5 -5 -5 -5 -5 -5 -5 -5 -5 -5 -5 -5 -5 -5 -5 -5 -5 -5 -5 -6 -6 -5 -5 -6 -6 -6 -6 -6 -6 -6 -6 -6 -6 -6 -6 -6 -6 -6 -6 -6
-5 -5 -5 -5 -5 -5 -5 -5 -5 -5 -5 -5 -5 -6 -6 -6 -6 -6 -6 -6 -6 -6 -6 -6 -6 -6 -6 -6 -6 -6 -6 -6 -6 -6 -6 -6 -6 -6 -6 -6 -6 -6 -6 -6
-6 -6 -6 -6 -6 -6 -6 -6 -6 -6 -6 -6 -6 -6 -6 -6 -6 -7 -7 -7 -7 -7 -7 -7 -7 -7 -7 -7 -7 -7 -7 -7 -7 -7 -7 -7 -7 -7 -7 -7 -6 -6 -6 -6
-6 -6 -6 -6 -6 -6 -6 -6 -6 -6 -6 -6 -6 -7 -7 -7 -7 -7 -7 -7 -7 -7 -7 -7 -7 -7 -7 -7 -7 -7 -7 -7 -7 -7 -7 -7 -7 -7 -7 -7 -7 -7 -7 -7
-6 -6 -7 -7 -7 -7 -7 -7 -7 -7 -7 -7 -7 -7 -7 -7 -8 -8 -8 -8 -8 -8 -8 -8 -8 -8 -8 -8 -8 -7 -7 -7 -7 -7 -7 -7 -7 -7 -7 -7 -7 -7 -7 -7
-7 -7 -7 -7 -7 -7 -7 -7 -7 -7 -8 -8 -8 -8 -8 -8 -8 -8 -8 -8 -8 -8 -8 -8 -8 -8 -8 -8 -8 -8 -8 -8 -8 -8 -8 -8 -7 -7 -7 -7 -7 -7 -7 -7
-7 -7 -7 -8 -8 -8 -8 -8 -8 -8 -8 -8 -8 -8 -8 -8 -8 -8 -9 -9 -9 -9 -8 -8 -8 -8 -8 -8 -8 -8 -8 -8 -8 -8 -8 -8 -8 -8 -8 -8 -8 -8 -8 -8
-8 -8 -8 -8 -8 -8 -8 -8 -8 -8 -9 -9 -9 -9 -9 -9 -9 -9 -9 -9 -9 -9 -9 -9 -9 -9 -9 -9 -9 -9 -9 -8 -8 -8 -8 -8 -8 -8 -8 -8 -8 -8 -8 -8
-8 -8 -8 -8 -8 -8 -8 -9 -9 -9 -9 -9 -9 -9 -9 -9 -9 -9 -9 -9 -9 -9 -9 -9 -9 -9 -9 -9 -9 -9 -9 -9 -9 -9 -8 -8 -8 -8 -8 -8 -8 -8 -8 -8
Wind_Speed
3 2 1 1 3 3 5 5 6 5 5 7 4 2 1 2 3 4 4 4 4 3 3 3 3 3 3 3 2 3 3 3 2 2 2 2 2 3 3 3 3 3 3 2
3 2 0 2 4 5 6 5 6 5 7 5 2 2 2 2 3 3 3 3 3 3 3 3 2 2 2 2 2 3 3 2 2 2 2 3 3 3 3 3 3 3 3 3
3 3 2 4 4 4 3 2 3 6 5 1 1 1 1 1 2 2 2 2 2 2 2 1 2 2 2 1 2 3 3 2 2 2 2 2 3 3 3 3 3 2 2 2
1 2 3 4 2 2 2 1 2 1 2 1 1 1 2 2 2 1 1 2 2 2 2 2 2 2 2 3 3 3 3 2 2 2 2 2 3 2 2 2 2 2 1 1
1 2 4 4 3 2 2 2 3 3 3 2 2 3 4 4 2 1 1 1 1 2 2 2 2 2 3 3 3 3 2 2 1 2 2 2 2 2 1 2 1 1 1 1
1 2 3 3 5 4 1 3 4 3 2 2 2 1 2 2 3 3 3 3 3 3 3 3 2 2 3 3 3 2 1 1 1 1 2 2 2 1 1 1 1 1 0 1
2 3 4 5 6 2 2 4 5 2 1 0 1 2 1 2 3 3 4 4 4 3 3 2 2 2 3 2 1 1 1 1 2 1 1 1 1 1 1 1 1 1 0 1
2 3 5 4 2 1 3 3 2 2 1 1 1 2 2 3 3 4 4 4 4 4 3 3 2 3 3 2 1 1 2 2 2 1 1 1 1 1 1 2 1 0 0 1
4 4 2 1 1 2 1 1 2 2 2 2 2 2 3 3 3 3 3 3 3 3 3 3 3 2 2 1 2 2 2 2 1 1 1 1 1 1 1 1 1 1 1 1
2 3 4 3 4 4 3 2 2 2 2 2 2 2 2 3 3 3 3 3 3 3 3 3 3 3 1 1 2 2 2 1 1 1 1 1 1 0 1 1 1 2 2 2
3 4 4 4 3 3 3 3 3 3 3 2 2 1 2 2 2 2 3 3 3 2 2 2 3 3 2 1 2 2 1 1 1 1 1 1 1 0 1 2 3 3 3 2
5 4 3 4 3 3 2 3 3 3 3 3 2 1 2 2 2 2 2 3 3 3 3 3 3 3 3 2 1 1 1 1 0 1 1 1 1 2 3 2 3 3 3 3
5 3 3 3 3 3 2 2 2 2 2 2 2 2 2 2 2 2 3 3 3 2 2 3 3 3 4 3 2 1 0 0 0 0 0 0 0 0 2 4 4 4 3 4
3 2 3 3 3 3 2 2 2 3 3 2 2 2 2 2 2 3 2 2 3 2 2 2 3 3 4 3 2 1 1 0 0 0 1 0 1 1 1 1 2 3 4 5
4 3 3 2 1 2 2 2 3 3 3 3 3 2 2 2 2 2 3 3 3 3 3 3 3 4 4 3 2 2 1 0 0 0 0 0 0 0 1 1 2 2 3 4
3 1 0 0 1 1 2 1 1 1 2 2 2 2 2 2 2 2 3 3 3 3 3 3 3 4 4 3 3 2 1 1 1 1 1 1 1 1 1 1 2 2 3 3
1 2 1 1 1 1 1 1 0 0 1 1 1 1 2 2 2 3 3 3 3 2 3 3 3 4 4 3 2 1 1 1 2 1 1 1 1 1 1 1 2 2 3 4
2 2 2 2 1 1 1 1 1 1 0 0 1 2 2 2 2 2 3 3 3 4 3 3 3 3 3 3 2 1 1 1 1 1 1 1 1 1 1 2 2 3 3 4
1 1 1 0 1 1 0 1 1 1 1 1 2 2 2 2 1 2 2 3 3 3 4 4 5 4 4 4 4 1 1 1 1 1 1 2 2 1 2 2 2 3 3 3
2 2 2 2 2 1 1 1 1 2 2 2 2 2 2 2 1 2 2 2 2 2 3 4 3 3 3 3 4 1 1 1 1 1 1 1 1 2 2 2 2 3 3 3
1 2 2 2 2 2 2 1 2 2 2 2 2 1 1 1 1 1 1 2 3 2 3 4 3 2 3 3 4 2 1 1 1 1 1 1 2 2 2 3 3 3 3 3
1 1 1 1 2 2 2 2 2 2 2 2 2 2 2 2 2 2 1 1 2 4 3 2 2 3 4 4 2 2 2 1 1 1 1 2 2 2 3 3 3 3 3 3
1 1 1 1 1 1 2 2 2 2 1 1 1 1 1 0 1 0 2 2 2 4 4 2 3 5 6 4 2 2 2 2 2 2 2 2 2 2 3 3 3 3 3 3
1 1 1 1 2 2 2 2 2 2 1 1 1 1 1 1 1 1 1 3 4 5 3 4 5 5 5 3 2 2 2 2 2 2 2 2 2 2 3 3 3 3 3 4
1 1 1 2 1 1 0 1 2 2 2 1 2 2 1 0 0 1 1 2 4 4 3 4 6 6 4 2 2 2 2 2 2 2 2 2 2 3 3 3 3 3 3 4
1 1 1 1 1 1 0 1 1 0 1 1 1 1 1 1 1 1 1 2 3 4 3 3 3 4 3 2 2 2 2 3 3 3 2 3 3 3 3 3 4 4 4 4
1 1 1 0 0 0 1 1 1 0 0 0 1 1 1 1 1 1 2 2 2 2 2 2 2 2 2 2 2 3 3 2 3 3 3 3 3 3 3 4 4 4 4 4
Wind_Direction
259 258 195 262 265 229 217 211 207 225 233 275 294 301 360 35 58 62 57 58 68 74 68 68 68 64 73 73 70 96 115 120 130 127 118 117 121 123 125 130 137 139 132 129
298 313 260 326 299 256 242 240 237 244 263 295 345 50 61 64 75 72 61 57 55 60 66 63 63 58 60 61 56 85 107 113 111 113 114 116 121 122 122 122 124 124 135 148
279 317 11 300 281 252 237 238 208 237 251 288 26 68 150 139 110 101 75 65 64 58 64 57 55 69 74 61 63 78 93 100 103 111 115 117 116 116 122 131 130 134 148 155
276 41 227 256 313 278 241 291 353 332 327 279 276 61 72 80 91 66 72 73 64 59 55 44 45 55 62 63 67 77 82 82 91 109 112 109 112 121 128 130 142 150 159 167
152 216 272 297 328 327 238 280 348 321 320 348 36 52 28 19 24 48 88 90 79 65 60 58 50 58 74 65 65 71 73 70 78 116 122 122 128 139 128 134 132 156 171 169
158 193 243 288 310 306 169 284 334 339 325 348 51 140 288 353 35 38 48 57 56 47 56 59 39 64 85 77 71 67 64 105 105 117 130 151 160 153 129 140 160 163 159 178
207 232 268 304 312 339 141 273 314 309 289 207 207 226 202 66 49 43 47 51 58 62 59 47 47 81 95 84 59 351 18 72 77 90 125 156 146 145 140 131 119 130 155 286
189 220 263 325 32 125 249 295 329 332 340 49 60 67 63 59 51 47 47 45 54 64 52 35 47 82 84 64 15 44 70 78 75 69 78 94 117 114 128 139 135 171 201 323
198 219 278 308 286 309 328 322 335 350 4 64 64 51 47 46 41 38 45 42 47 65 58 35 33 71 86 24 26 53 71 72 70 64 61 94 128 132 122 145 165 225 225 261
243 271 289 312 330 343 353 345 350 17 26 56 67 49 43 46 44 36 31 31 39 55 54 27 20 41 66 42 45 67 74 67 70 75 46 42 53 118 171 204 211 232 243 255
259 279 301 312 324 325 341 6 17 22 28 45 82 53 52 41 36 35 30 26 36 45 40 14 14 20 27 45 72 67 58 77 76 63 75 40 19 304 270 239 225 232 238 242
243 253 246 278 326 353 6 5 10 24 20 25 60 69 49 40 30 38 36 39 43 37 33 13 11 6 4 20 67 100 85 62 79 74 52 41 18 358 347 327 313 305 286 276
251 277 257 274 317 338 340 351 6 29 30 14 22 55 68 52 38 44 44 40 35 29 27 21 16 3 356 3 28 63 177 203 145 84 56 348 339 8 348 355 359 351 333 316
264 274 277 283 295 328 348 2 28 33 32 38 33 49 64 56 48 44 27 15 19 29 27 21 14 358 351 359 14 12 355 303 328 196 198 220 254 275 297 323 335 341 342 339
298 269 245 273 333 355 15 35 41 27 24 22 32 47 53 59 46 22 13 19 30 29 20 19 14 355 352 1 13 8 359 334 262 225 194 138 328 346 339 323 317 322 332 334
308 321 196 155 310 338 8 33 38 354 5 16 29 33 40 58 53 37 27 28 37 22 8 14 4 348 350 1 6 6 5 10 13 18 15 17 5 332 307 306 310 310 307 310
266 266 248 255 270 316 334 324 270 285 353 31 29 40 62 66 56 37 23 18 24 17 7 8 353 348 352 355 356 355 3 1 7 11 356 322 299 283 281 286 291 295 292 294
244 244 231 218 217 251 329 356 43 40 4 28 67 77 77 74 54 18 7 12 22 19 9 1 348 349 355 353 350 349 359 357 350 330 327 312 300 285 283 284 287 292 301 306
38 65 66 84 136 145 347 6 35 35 36 65 84 82 72 61 42 17 13 22 19 0 345 345 354 6 354 347 355 0 9 1 353 340 323 309 324 315 300 292 291 292 298 305
59 60 67 62 59 71 63 39 57 50 46 74 85 78 62 45 39 28 23 9 334 301 311 333 346 353 344 341 350 355 2 356 338 330 329 321 311 308 303 298 295 295 296 298
69 72 68 62 51 42 41 49 73 63 50 69 88 90 67 34 33 29 23 348 331 334 338 348 358 345 339 342 351 8 359 341 322 311 309 307 306 306 305 304 301 297 296 301
99 101 91 82 73 40 25 41 67 72 63 60 63 71 65 39 20 7 338 283 310 344 354 349 344 344 346 356 20 11 351 335 322 316 309 302 300 301 303 303 300 299 301 303
128 121 112 105 97 65 42 44 52 66 65 55 54 55 51 2 352 342 326 334 341 348 353 341 342 350 355 16 21 9 355 343 334 324 313 307 304 301 300 302 302 304 306 306
127 120 120 103 95 83 52 22 34 47 53 43 40 41 48 33 8 346 285 327 345 349 353 345 353 355 5 23 8 357 348 342 335 326 320 318 315 311 308 308 305 307 307 308
138 131 119 114 112 116 95 51 51 49 49 35 18 11 14 70 212 325 343 347 351 359 1 353 357 1 9 3 354 346 340 332 322 326 330 329 322 319 316 315 315 311 310 308
147 158 170 173 169 162 124 100 91 63 60 26 7 2 7 14 16 4 358 352 347 353 356 347 348 353 355 348 346 344 340 336 343 346 334 326 321 318 317 316 313 312 310 311
124 122 114 83 68 126 133 135 146 174 164 190 318 337 353 1 11 8 355 349 348 349 344 341 344 345 344 345 344 339 333 330 327 325 322 317 313 310 309 307 310 309 309 308
Height
1448 1446 1446 1446 1445 1445 1445 1445 1447 1444 1443 1438 1439 1439 1439 1438 1438 1438 1438 1439 1440 1441 1443 1445 1447 1448 1450 1453 1455 1456 1458 1459 1461 1463 1464 1465 1467 1468 1469 1470 1471 1472 1473 1474
1449 1446 1445 1445 1445 1444 1443 1443 1443 1441 1441 1439 1439 1439 1439 1439 1439 1439 1440 1441 1442 1442 1444 1445 1446 1448 1450 1452 1453 1455 1456 1457 1459 1460 1461 1462 1464 1465 1466 1467 1468 1469 1469 1470
1452 1449 1445 1448 1445 1444 1443 1442 1441 1440 1440 1440 1440 1440 1439 1440 1440 1441 1441 1442 1443 1444 1445 1446 1447 1448 1449 1450 1452 1453 1454 1455 1456 1457 1458 1460 1461 1462 1463 1464 1465 1465 1466 1467
1454 1453 1456 1447 1444 1443 1442 1441 1440 1439 1438 1438 1438 1439 1439 1440 1440 1441 1441 1442 1443 1444 1445 1446 1447 1447 1449 1450 1451 1452 1453 1453 1454 1455 1456 1457 1458 1459 1460 1461 1461 1462 1463 1463
1457 1457 1451 1445 1444 1444 1444 1442 1441 1440 1439 1438 1438 1438 1440 1440 1441 1441 1442 1442 1443 1444 1445 1445 1446 1447 1447 1448 1449 1450 1451 1452 1453 1453 1454 1455 1456 1456 1457 1458 1458 1459 1459 1460
1458 1456 1453 1447 1444 1441 1443 1442 1441 1440 1439 1439 1438 1441 1441 1441 1441 1441 1442 1442 1443 1443 1444 1445 1445 1446 1446 1447 1448 1449 1449 1450 1451 1452 1452 1453 1453 1454 1454 1455 1455 1455 1456 1456
1459 1458 1452 1448 1444 1441 1447 1446 1441 1439 1439 1438 1439 1439 1440 1440 1440 1441 1441 1442 1442 1443 1443 1444 1445 1445 1445 1446 1446 1447 1448 1448 1449 1450 1450 1451 1451 1451 1452 1452 1452 1452 1452 1452
1459 1459 1456 1447 1445 1446 1445 1442 1441 1439 1439 1438 1438 1438 1439 1439 1440 1440 1440 1441 1441 1442 1443 1443 1444 1444 1444 1444 1445 1446 1446 1446 1447 1447 1448 1448 1448 1449 1449 1449 1449 1449 1449 1448
1455 1454 1450 1447 1446 1444 1443 1442 1441 1440 1439 1439 1438 1438 1439 1439 1439 1440 1440 1440 1441 1441 1442 1442 1443 1443 1443 1444 1444 1444 1444 1444 1445 1445 1445 1446 1446 1446 1446 1446 1446 1445 1445 1444
1451 1449 1448 1446 1445 1444 1443 1441 1440 1440 1439 1439 1438 1438 1438 1438 1439 1439 1439 1440 1440 1440 1441 1441 1441 1442 1442 1442 1442 1442 1442 1443 1443 1443 1443 1443 1443 1443 1443 1442 1442 1442 1441 1441
1450 1448 1446 1444 1444 1443 1442 1441 1440 1439 1439 1438 1438 1438 1438 1438 1438 1438 1438 1439 1439 1439 1439 1439 1440 1440 1440 1440 1440 1441 1441 1441 1441 1441 1441 1441 1441 1441 1440 1440 1440 1439 1439 1439
1448 1446 1446 1444 1443 1443 1441 1440 1439 1438 1438 1438 1438 1437 1437 1437 1438 1438 1438 1438 1438 1438 1438 1438 1438 1438 1439 1439 1439 1439 1439 1439 1439 1439 1438 1438 1438 1438 1438 1438 1437 1437 1437 1437
1444 1443 1443 1442 1442 1441 1440 1439 1439 1438 1437 1437 1437 1437 1437 1437 1438 1438 1437 1437 1437 1437 1437 1437 1437 1437 1437 1437 1437 1437 1437 1437 1437 1437 1436 1436 1435 1435 1434 1435 1435 1434 1434 1433
1442 1442 1441 1440 1440 1439 1438 1438 1437 1437 1437 1437 1436 1436 1436 1437 1437 1437 1436 1436 1436 1436 1436 1436 1436 1436 1436 1436 1436 1435 1435 1435 1435 1435 1434 1434 1434 1433 1432 1431 1431 1431 1431 1431
1440 1440 1439 1438 1438 1437 1437 1437 1436 1436 1436 1435 1436 1435 1435 1435 1436 1436 1436 1436 1436 1435 1435 1435 1435 1435 1435 1434 1434 1433 1433 1433 1433 1433 1432 1432 1432 1431 1431 1430 1429 1429 1428 1428
1438 1437 1437 1436 1436 1435 1435 1435 1435 1434 1434 1434 1434 1434 1435 1435 1435 1435 1435 1435 1435 1434 1434 1434 1434 1434 1433 1433 1432 1432 1431 1431 1431 1431 1430 1430 1430 1430 1429 1429 1428 1427 1426 1426
1436 1435 1434 1434 1434 1434 1434 1434 1434 1433 1433 1433 1433 1434 1434 1434 1434 1434 1434 1434 1434 1434 1433 1433 1432 1432 1432 1431 1431 1430 1430 1430 1429 1429 1429 1429 1428 1428 1427 1427 1426 1425 1425 1424
1434 1434 1433 1433 1433 1433 1433 1433 1433 1432 1432 1432 1433 1433 1433 1433 1433 1433 1433 1433 1433 1433 1433 1432 1432 1431 1430 1430 1429 1429 1429 1428 1428 1428 1427 1427 1426 1426 1426 1425 1424 1423 1422 1422
1433 1432 1432 1432 1432 1432 1432 1432 1432 1432 1431 1432 1432 1432 1432 1433 1433 1433 1433 1432 1432 1432 1432 1431 1431 1430 1429 1429 1428 1428 1427 1427 1426 1426 1426 1425 1425 1424 1423 1423 1422 1421 1420 1419
1432 1432 1431 1431 1432 1432 1432 1431 1431 1431 1431 1431 1431 1432 1432 1432 1432 1432 1432 1432 1431 1431 1430 1430 1429 1429 1428 1428 1427 1427 1426 1426 1425 1424 1424 1423 1423 1422 1421 1420 1419 1419 1418 1417
1432 1431 1431 1431 1431 1431 1431 1431 1431 1431 1431 1431 1431 1431 1431 1432 1432 1431 1431 1431 1431 1430 1429 1429 1428 1427 1427 1426 1426 1425 1425 1424 1424 1423 1422 1422 1421 1420 1419 1418 1417 1416 1415 1414
1431 1431 1431 1431 1431 1431 1431 1431 1431 1431 1431 1431 1431 1431 1431 1431 1431 1431 1430 1430 1430 1429 1428 1427 1427 1426 1426 1425 1425 1424 1424 1423 1422 1422 1421 1420 1419 1418 1417 1416 1415 1414 1413 1411
1431 1431 1431 1431 1430 1430 1430 1431 1431 1431 1431 1430 1430 1430 1430 1430 1430 1430 1429 1429 1428 1428 1427 1426 1426 1425 1425 1424 1424 1423 1422 1422 1421 1420 1419 1418 1418 1416 1415 1414 1413 1411 1410 1409
1430 1430 1430 1430 1430 1430 1430 1430 1430 1430 1430 1430 1430 1430 1429 1429 1429 1429 1429 1428 1427 1427 1426 1426 1425 1424 1424 1423 1423 1422 1421 1421 1420 1419 1418 1417 1416 1415 1413 1412 1411 1409 1408 1407
1429 1429 1429 1429 1429 1429 1429 1429 1429 1429 1429 1429 1429 1429 1429 1429 1429 1428 1428 1427 1427 1426 1425 1425 1425 1424 1423 1423 1422 1421 1420 1419 1418 1417 1416 1415 1414 1413 1412 1410 1409 1408 1406 1405
1428 1428 1428 1428 1428 1428 1428 1428 1428 1428 1428 1428 1428 1428 1428 1428 1428 1427 1427 1426 1426 1425 1425 1424 1424 1423 1422 1422 1421 1420 1419 1418 1417 1416 1415 1414 1413 1411 1410 1409 1407 1406 1404 1403
1426 1426 1427 1427 1427 1427 1427 1427 1427 1427 1427 1427 1427 1428 1427 1427 1427 1427 1426 1426 1425 1424 1424 1423 1423 1422 1421 1421 1420 1419 1418 1417 1416 1415 1413 1412 1411 1410 1408 1407 1405 1404 1402 1401